This is the latest recevied weather packets stored in our database for station/object N5TSS. If no packets are shown the sender has not sent any weather packets the latest 1 day(s).
| Time | Temp. | Humidity | Pressure | Rain* | Wind** | Luminosity | Snow |
|---|---|---|---|---|---|---|---|
| 1778002722 | 26.67° C | 77% | 1010.2 hPa | 0 mm | 1.34 m/s, 168° | - | - |
| 1778002419 | 26.67° C | 78% | 1010.2 hPa | 0 mm | 2.24 m/s, 188° | - | - |
| 1778002116 | 26.11° C | 77% | 1010.2 hPa | 0 mm | 2.24 m/s, 156° | - | - |
| 1778001814 | 26.67° C | 77% | 1010.2 hPa | 0 mm | 1.79 m/s, 153° | - | - |
| 1778001513 | 26.11° C | 79% | 1010.5 hPa | 0 mm | 1.34 m/s, 196° | - | - |
| 1778001211 | 26.11° C | 79% | 1010.5 hPa | 0 mm | 1.34 m/s, 196° | - | - |
| 1778000907 | 25.56° C | 80% | 1010.5 hPa | 0 mm | 2.24 m/s, 161° | - | - |
| 1778000604 | 25.56° C | 80% | 1010.5 hPa | 0 mm | 2.24 m/s, 201° | - | - |
| 1778000299 | 25.56° C | 80% | 1010.5 hPa | 0 mm | 2.24 m/s, 161° | - | - |
| 1777999995 | 25.56° C | 80% | 1010.5 hPa | 0 mm | 2.68 m/s, 175° | - | - |
| 1777999691 | 25.56° C | 79% | 1010.5 hPa | 0 mm | 1.79 m/s, 166° | - | - |
| 1777999388 | 26.11° C | 79% | 1010.5 hPa | 0 mm | 2.24 m/s, 174° | - | - |
| 1777999086 | 26.11° C | 78% | 1010.5 hPa | 0 mm | 2.68 m/s, 153° | - | - |
| 1777998784 | 26.11° C | 79% | 1010.5 hPa | 0 mm | 1.34 m/s, 175° | - | - |
| 1777998482 | 25.56° C | 80% | 1010.5 hPa | 0 mm | 2.68 m/s, 174° | - | - |
| 1777998178 | 25° C | 80% | 1010.8 hPa | 0 mm | 2.68 m/s, 179° | - | - |
| 1777997875 | 25° C | 81% | 1010.8 hPa | 0 mm | 2.68 m/s, 205° | - | - |
| 1777997573 | 25° C | 81% | 1010.8 hPa | 0 mm | 1.79 m/s, 149° | - | - |
| 1777997270 | 25° C | 81% | 1010.8 hPa | 0 mm | 2.24 m/s, 195° | - | - |
| 1777996968 | 25° C | 82% | 1010.8 hPa | 0 mm | 1.79 m/s, 159° | - | - |
| 1777996664 | 25° C | 82% | 1010.8 hPa | 0 mm | 1.34 m/s, 214° | - | - |
| 1777996360 | 25° C | 82% | 1010.8 hPa | 0 mm | 1.79 m/s, 216° | - | - |
| 1777996057 | 25° C | 81% | 1010.8 hPa | 0 mm | 1.79 m/s, 188° | - | - |
| 1777995753 | 25° C | 81% | 1010.5 hPa | 0 mm | 1.34 m/s, 212° | - | - |
| 1777995449 | 24.44° C | 81% | 1010.5 hPa | 0 mm | 1.34 m/s, 182° | - | - |
* Rain latest hour (hover to see other rain measurements)
** Current wind speed in m/s (hover to see current wind gust speed)